Flag for South Africa Weather past 2 weeks in Vereeniging, South Africa

Now
82 °F

Pleasantly warm.


Feels Like: 80 °F
Forecast: 59 / 82 °F
Wind: 7 mph from Northwest

Location: Vereeniging

Current Time: Oct 23, 2014 at 4:12:22 PM

Latest Report: Oct 23, 2014 at 2:00 PM


Visibility: N/A

Pressure: 30.04 "Hg

Humidity: 25%

Dew point: 43 °F

Location of VereenigingLocation

Historic Weather in Vereeniging — Graph

°F

Vereeniging temperature yesterday

Maximum temperature yesterday: 86 °F (at 3:00 PM)
Minimum temperature yesterday: 54 °F (at 5:00 AM)
Average temperature yesterday: 69 °F

Past Weeks' High & Low Weather Summary

 TemperatureHumidityPressure
High88 °F (Oct 9, 1:00 PM)88% (Oct 11, 12:00 AM)30.30 "Hg (Oct 11, 12:00 AM)
Low41 °F (Oct 18, 5:00 AM)5% (Oct 13, 3:00 PM)29.74 "Hg (Oct 16, 3:00 PM)
Average67 °F41%30.12 "Hg
* Reported Oct 8 2:00 PM — Oct 23 2:00 PM, Vereeniging, Weather by CustomWeather, © 2014

Note: Actual official high and low records may vary slightly from our data, if they occured in-between our weather recording intervals... More about our weather records

Advertising

Vereeniging weather history for previous 24 hours

 ConditionsComfort  
Time TempWeatherWind HumidityBarometerVisibility
2:00 PM
Oct 23
82 °FPleasantly warm.7 mph25%30.04 "HgN/A
1:00 PM82 °FPleasantly warm.9 mph25%30.07 "HgN/A
12:00 PM77 °FPleasantly warm.8 mph32%30.12 "HgN/A
11:00 AM75 °FMild.7 mph36%30.15 "HgN/A
10:00 AM72 °FMild.7 mph41%30.18 "HgN/A
9:00 AM68 °FMild.9 mph49%30.18 "HgN/A
8:00 AM61 °FCool.12 mph63%30.18 "HgN/A
7:00 AM55 °FCool.12 mph77%30.21 "HgN/A
6:00 AM52 °FCool.9 mph82%30.18 "HgN/A
5:00 AM52 °FCool.8 mph82%30.18 "HgN/A
4:00 AM52 °FCool.12 mph88%30.18 "HgN/A
3:00 AM52 °FCool.10 mph88%30.18 "HgN/A
1:00 AM55 °FCool.13 mph77%30.21 "HgN/A
12:00 AM57 °FCool.13 mph72%30.21 "HgN/A
11:00 PM
Oct 22
61 °FCool.16 mph63%30.21 "HgN/A
10:00 PM64 °FMild.8 mph52%30.21 "HgN/A
9:00 PM70 °FMild.7 mph31%30.21 "HgN/A
8:00 PM72 °FMild.7 mph31%30.15 "HgN/A
7:00 PM73 °FMild.9 mph29%30.12 "HgN/A
6:00 PM77 °FPleasantly warm.7 mph24%30.12 "HgN/A
5:00 PM81 °FPleasantly warm.8 mph21%30.12 "HgN/A
4:00 PM84 °FPleasantly warm.7 mph15%30.12 "HgN/A
Weather by CustomWeather, © 2014

See weather overviewHow to use our weather pages